Regional Weather Roundup
Issued by NWS

Home | Current Version | Previous Version | Text Only | Print | Product List | Glossary On
Versions: 1 2 3 4 5 6 7 8 9 10 11 12 13 14 15 16 17 18 19 20 21 22 23 24 25 26 27 28 29 30 31 32 33 34 35 36 37 38 39 40 41 42 43 44 45 46 47 48 49 50
806
ASUS45 KTFX 261810
RWRMT
MONTANA REGIONAL WEATHER ROUNDUP
NATIONAL WEATHER SERVICE GREAT FALLS MT
1200 PM MDT TUE SEP 26 2017

NOTE: "FAIR" INDICATES FEW OR NO CLOUDS BELOW 12000 FEET WITH NO
SIGNIFICANT WEATHER AND/OR OBSTRUCTIONS TO VISIBILITY.

MTZ001>007-043-261900-
WEST OF THE DIVIDE

CITY           SKY/WX    TMP DP  RH WIND       PRES   REMARKS
KALISPELL      SUNNY     57  50  77 S5        30.21S
MISSOULA       MOSUNNY   57  46  66 VRB5      30.23F
BUTTE          CLOUDY    50  39  66 VRB3      30.27R
MULLAN PASS    MOSUNNY   48  39  71 VRB5      30.27S
ANACONDA         N/A     55  39  54 W6        30.24F
DEER LODGE       N/A     52  43  71 S3        30.27S
EUREKA           N/A     57  45  62 MISG      30.21F
HAMILTON         N/A     57  43  58 CALM      30.24S
LIBBY            N/A     57  45  62 CALM      30.20F VSB 1
PLAINS           N/A     62  45  53 CALM      30.20S
RONAN            N/A     63  47  55 SE3       30.23F
$$

MTZ008-052>055-261900-
SOUTHWEST MONTANA

CITY           SKY/WX    TMP DP  RH WIND       PRES   REMARKS
BOZEMAN        CLOUDY    56  39  53 W5        30.24S
DILLON         CLOUDY    52  37  56 SW5       30.24S
W YELLOWSTONE  CLOUDY    45  30  57 E3        30.27S
ENNIS          CLOUDY    54  37  54 VRB6      30.30S
THREE FORKS      N/A     57  40  53 S1        30.20S
TWIN BRIDGES     N/A     53  39  59 CALM      30.21R
$$

MTZ009-010-012-014-046-048-049-054-261900-
EAST SLOPES AND CENTRAL MONTANA

CITY           SKY/WX    TMP DP  RH WIND       PRES   REMARKS
CUT BANK       PTSUNNY   63  38  39 NW13      30.15R
GREAT FALLS    CLOUDY    61  38  42 SW10      30.15F
MALMSTROM AFB  CLOUDY    61  40  45 W12       30.15F
HELENA         SUNNY     58  42  55 VRB5      30.19F
BOWMANS CRNR     N/A     57  39  49 SW9G17    30.16S
CHOTEAU          N/A     64  37  36 CALM      30.17S
FAIRFIELD        N/A     62  37  40 SW7       30.15S
POWER            N/A     62  37  38 W5        30.15R
RAYNESFORD     CLOUDY    60  38  44 NW10      30.16F
ULM              N/A     61  39  44 SW10      30.17S
$$

MTZ011-013-016-021-045-047-050-051-261900-
NORTH CENTRAL MONTANA

CITY           SKY/WX    TMP DP  RH WIND       PRES   REMARKS
HAVRE          SUNNY     64  41  42 W13       30.10R
N BAR RANCH    CLOUDY    57  37  47 W10       30.18S
CHINOOK          N/A     61  43  51 CALM      30.09F
DENTON           N/A     61  38  42 W13G18    30.11S
GEYSER         CLOUDY    59  39  47 W17       30.15S
GRASS RANGE    PTSUNNY   58  38  46 W16       30.12R
JUDITH GAP     PTSUNNY   58  38  48 NE9       30.17R
WINIFRED       PTSUNNY   60  39  47 NW14G22   30.13S
$$

MTZ017>020-022>027-061-062-261900-
NORTHEAST MONTANA

CITY           SKY/WX    TMP DP  RH WIND       PRES   REMARKS
GLASGOW        SUNNY     58  40  51 S8        30.11S
JORDAN           N/A     59  37  44 VRB3      30.11F
SIDNEY         PTSUNNY   55  41  59 S5        30.13F
WOLF POINT     SUNNY     55  40  56 SW7       30.13F
MALTA          SUNNY     59  41  51 CALM      30.10F
PLENTYWOOD       N/A     54  43  66 CALM      30.11F
POPLAR           N/A     54  43  66 SW3       30.13F
SCOBEY           N/A     55  40  57 CALM      30.08F
$$

MTZ028>42-056>058-261900-
SOUTHCENTRAL AND SOUTHEAST MONTANA

CITY           SKY/WX    TMP DP  RH WIND       PRES   REMARKS
BAKER          CLOUDY    51  41  68 NW9       30.15S
BILLINGS       PTSUNNY   59  40  49 CALM      30.16S
LIVINGSTON     CLOUDY    60  39  45 SW17G28   30.20S
MILES CITY     CLOUDY    45  45 100 SW5       30.15F
BIG TIMBER     MOSUNNY   59  39  47 W21       30.21S
EKALAKA          N/A     53  36  52 W9        30.11S
HARLOWTON      PTSUNNY   58  40  49 MISG      30.17S
LAUREL           N/A     61  41  48 S8        30.17S
$$

REGIONAL REPORTS...DAKOTAS

CITY           SKY/WX    TMP DP  RH WIND       PRES   REMARKS
WILLISTON      CLOUDY    52  43  71 SW3       30.13S
MINOT          CLOUDY    54  40  59 CALM      30.11S
DICKINSON      CLOUDY    51  44  77 NE5       30.10S
BISMARCK       CLOUDY    53  44  71 CALM      30.14S
GRAND FORKS    RAIN      49  49 100 NW9       30.08F
FARGO          CLOUDY    53  51  93 NW12      30.05F
BUFFALO SD       N/A     56  41  57 NW14G21   30.07R
RAPID CITY     MOSUNNY   61  39  44 VRB6      30.13F
$$

REGIONAL REPORTS...WYOMING/IDAHO/WASHINGTON

CITY           SKY/WX    TMP DP  RH WIND       PRES   REMARKS
GILLETTE       CLOUDY    56  36  47 NW8G17    30.17S
SHERIDAN       PTSUNNY   61  40  45 NW12      30.18S
BUFFALO WY     CLOUDY    55  34  45 VRB6      30.21R
CODY           SUNNY     56  31  38 SE5       30.21F
YELLOWSTONE LA   N/A     40  31  70 SE6       30.29
IDAHO FALLS    CLOUDY    52  36  54 VRB3      30.24F
BOISE          SUNNY     63  38  39 CALM      30.19S
SPOKANE        MOSUNNY   63  48  58 CALM      30.21S
$$

REGIONAL REPORTS...ALBERTA

CITY           SKY/WX    TMP DP  RH WIND       PRES   REMARKS
EDMONTON       SUNNY     63  48  59 W9        30.04S
CALGARY        PTSUNNY   63  39  42 W7        30.13S
LETHBRIDGE     MOSUNNY   64  41  42 NW10G21   30.12S
MEDICINE HAT   PTSUNNY   61  43  51 SW7       30.08S
$$

REGIONAL REPORTS...SASKATCHEWAN

CITY           SKY/WX    TMP DP  RH WIND       PRES   REMARKS
SWIFT CURRENT  CLOUDY    63  34  34 W7        30.04S
REGINA         PTSUNNY   59  37  44 S9        30.06F
SASKATOON      CLOUDY    54  43  66 S6        30.02R
$$




USA.gov is the U.S. government's official web portal to all federal, state and local government web resources and services.